Weather History for Lake Hood, AK

Change the Weather History Date:

Friday, November 9, 2012

  Actual Average Record
Temperature  
Mean Temperature 24 °F -  
Max Temperature 28 °F 29 °F 46 °F (1997)
Min Temperature 21 °F 20 °F 6 °F (1996)
Degree Days  
Heating Degree Days 40    
Moisture  
Dew Point 21 °F    
Average Humidity 83    
Maximum Humidity 89    
Minimum Humidity 47    
Precipitation  
Precipitation 0.01 in - - ()
Sea Level Pressure  
Sea Level Pressure 30.00 in    
Wind  
Wind Speed 7 mph (NNE)    
Max Wind Speed 12 mph    
Max Gust Speed -    
Visibility 7 miles    
Events Snow    
Averages and records for this station are not official NWS values.
T = Trace of Precipitation, MM = Missing Value Source: NWS Daily Summary

Daily Weather History Graph

Daily Weather History Graph

Search for Another Location

Airport:

Trip Planner

Search our weather history database for the weather conditions in past years. The results will help you decide how hot, cold, wet, or windy it might be!

Date:

Astronomy

Nov. 09, 2012 Rise Set
Actual Time 8:51 AM AKST 4:35 PM AKST
Civil Twilight 8:01 AM AKST 5:25 PM AKST
Nautical Twilight 7:08 AM AKST 6:18 PM AKST
Astronomical Twilight 6:17 AM AKST 7:08 PM AKST
Moon 2:46 AM AKST (11/9) 2:58 PM AKST (11/9)
Length of Visible Light 9h 23m
Length of Day
7h 44m
Waning Crescent, 22% of the Moon is Illuminated
Nov 9
Waning Crescent
Nov 13
New
Nov 20
First Quarter
Nov 28
Full
Dec 6
Last Quarter

Hourly Weather History & Observations

Time (AKST) Temp. Windchill Dew Point Humidity Pressure Visibility Wind Dir Wind Speed Gust Speed Precip Events Conditions
12:53 AM 26.1 °F 19.4 °F 8.1 °F 47% 30.19 in 10.0 mi North 5.8 mph - N/A   Overcast
1:53 AM 26.1 °F 20.5 °F 8.1 °F 47% 30.18 in 10.0 mi North 4.6 mph - N/A   Overcast
2:48 AM 26.6 °F 20.0 °F 10.4 °F 51% 30.16 in 9.0 mi North 5.8 mph - 0.00 in Snow Light Snow
3:17 AM 24.8 °F 16.9 °F 15.8 °F 69% 30.16 in 2.0 mi North 6.9 mph - 0.00 in Snow Light Snow
3:26 AM 23.0 °F 13.9 °F 15.8 °F 74% 30.16 in 1.5 mi North 8.1 mph - 0.00 in Snow Light Snow
3:53 AM 21.9 °F 13.4 °F 18.0 °F 85% 30.15 in 1.2 mi NNE 6.9 mph - 0.00 in Snow Light Snow
4:36 AM 23.0 °F 14.7 °F 19.4 °F 86% 30.13 in 2.0 mi NNE 6.9 mph - 0.00 in Snow Light Snow
4:46 AM 23.0 °F 14.7 °F 19.4 °F 86% 30.12 in 1.8 mi NNE 6.9 mph - 0.00 in Snow Light Snow
4:53 AM 23.0 °F 13.1 °F 19.0 °F 85% 30.12 in 1.5 mi NNE 9.2 mph - 0.00 in Snow Light Snow
5:14 AM 23.0 °F 13.9 °F 19.4 °F 86% 30.11 in 2.0 mi NNE 8.1 mph - 0.00 in Snow Light Snow
5:39 AM 23.0 °F 13.1 °F 19.4 °F 86% 30.10 in 2.0 mi North 9.2 mph - 0.00 in Snow Light Snow
5:53 AM 23.0 °F 13.9 °F 19.9 °F 88% 30.10 in 2.5 mi NNE 8.1 mph - 0.00 in Snow Light Snow
6:07 AM 23.0 °F 13.9 °F 19.4 °F 86% 30.09 in 1.5 mi NNE 8.1 mph - 0.00 in Snow Light Snow
6:25 AM 23.0 °F 13.9 °F 19.4 °F 86% 30.08 in 1.0 mi NNE 8.1 mph - 0.01 in Snow Light Snow
6:53 AM 24.1 °F 13.1 °F 21.0 °F 88% 30.06 in 2.0 mi NNE 11.5 mph - 0.01 in Snow Light Snow
7:05 AM 24.8 °F 17.9 °F 21.2 °F 86% 30.06 in 3.0 mi NNE 5.8 mph - 0.00 in Snow Light Snow
7:47 AM 24.8 °F 19.1 °F 21.2 °F 86% 30.05 in 2.5 mi NNE 4.6 mph - 0.00 in Snow Light Snow
7:53 AM 24.1 °F 17.0 °F 21.0 °F 88% 30.05 in 2.0 mi NNE 5.8 mph - 0.00 in Snow Light Snow
8:11 AM 24.8 °F 16.9 °F 21.2 °F 86% 30.03 in 3.0 mi NNE 6.9 mph - 0.00 in Snow Light Snow
8:30 AM 24.8 °F 17.9 °F 21.2 °F 86% 30.03 in 8.0 mi North 5.8 mph - 0.00 in Snow Light Snow
8:53 AM 25.0 °F 18.1 °F 21.9 °F 88% 30.03 in 10.0 mi North 5.8 mph - 0.00 in   Overcast
9:10 AM 24.8 °F 17.9 °F 21.2 °F 86% 30.02 in 9.0 mi North 5.8 mph - 0.00 in Snow Light Snow
9:53 AM 25.0 °F 17.1 °F 21.9 °F 88% 30.01 in 10.0 mi North 6.9 mph - 0.00 in   Overcast
10:05 AM 24.8 °F 16.9 °F 21.2 °F 86% 30.01 in 10.0 mi NNW 6.9 mph - N/A   Overcast
10:53 AM 26.1 °F 20.5 °F 23.0 °F 88% 30.01 in 10.0 mi North 4.6 mph - N/A   Overcast
11:53 AM 27.0 °F 19.5 °F 23.0 °F 85% 29.98 in 10.0 mi North 6.9 mph - N/A   Overcast
12:53 PM 27.0 °F 20.5 °F 23.0 °F 85% 29.96 in 10.0 mi North 5.8 mph - N/A   Overcast
1:53 PM 28.0 °F 20.0 °F 24.1 °F 85% 29.95 in 10.0 mi North 8.1 mph - N/A   Overcast
2:53 PM 28.0 °F 20.0 °F 24.1 °F 85% 29.90 in 9.0 mi NNE 8.1 mph - 0.00 in Snow Light Snow
3:03 PM 28.4 °F 22.2 °F 24.8 °F 86% 29.89 in 9.0 mi NE 5.8 mph - 0.00 in   Overcast
3:53 PM 28.0 °F 21.7 °F 24.1 °F 85% 29.88 in 10.0 mi NE 5.8 mph - 0.00 in   Overcast
4:53 PM 28.0 °F 22.8 °F 25.0 °F 88% 29.86 in 10.0 mi North 4.6 mph - N/A   Overcast
5:53 PM 28.0 °F 20.8 °F 25.0 °F 88% 29.84 in 10.0 mi NNE 6.9 mph - N/A   Overcast
6:53 PM 28.0 °F 21.7 °F 25.0 °F 88% 29.83 in 10.0 mi NNE 5.8 mph - N/A   Overcast
7:05 PM 28.4 °F 24.6 °F 24.8 °F 86% 29.82 in 10.0 mi NNE 3.5 mph - N/A   Overcast
7:53 PM 28.0 °F 24.2 °F 25.0 °F 88% 29.81 in 10.0 mi North 3.5 mph - N/A   Overcast
8:53 PM 28.9 °F 23.9 °F 25.0 °F 85% 29.81 in 10.0 mi NNE 4.6 mph - N/A   Overcast
9:53 PM 28.9 °F 21.9 °F 26.1 °F 89% 29.80 in 10.0 mi NNE 6.9 mph - N/A   Overcast
10:53 PM 28.9 °F 21.9 °F 26.1 °F 89% 29.78 in 10.0 mi NE 6.9 mph - N/A   Overcast
11:53 PM 28.9 °F 21.9 °F 26.1 °F 89% 29.78 in 10.0 mi NE 6.9 mph - N/A   Overcast